TimeEST,TemperatureF,Dew PointF,Humidity,Sea Level PressureIn,VisibilityMPH,Wind Direction,Wind SpeedMPH,Gust SpeedMPH,PrecipitationIn,Events,Conditions,WindDirDegrees,DateUTC
12:35 AM,33.8,24.8,70,29.92,10.0,NW,8.1,-,N/A,,Overcast,310,2012-12-28 05:35:00
12:55 AM,33.8,24.8,70,29.91,10.0,WNW,8.1,17.3,N/A,,Overcast,300,2012-12-28 05:55:00
1:15 AM,33.8,24.8,70,29.91,10.0,WNW,12.7,17.3,N/A,,Overcast,300,2012-12-28 06:15:00
1:35 AM,33.8,24.8,70,29.93,10.0,WNW,9.2,17.3,N/A,,Overcast,300,2012-12-28 06:35:00
1:55 AM,33.8,24.8,70,29.95,10.0,WNW,8.1,16.1,N/A,,Overcast,290,2012-12-28 06:55:00
2:15 AM,33.8,24.8,70,29.96,10.0,WNW,10.4,17.3,N/A,,Overcast,290,2012-12-28 07:15:00
2:35 AM,33.8,24.8,70,29.96,10.0,NW,9.2,16.1,N/A,,Overcast,310,2012-12-28 07:35:00
2:55 AM,33.8,24.8,70,29.97,10.0,WNW,8.1,16.1,N/A,,Overcast,300,2012-12-28 07:55:00
3:15 AM,33.8,24.8,70,29.96,10.0,NW,8.1,18.4,N/A,,Overcast,310,2012-12-28 08:15:00
3:35 AM,33.8,24.8,70,29.97,10.0,NW,6.9,17.3,N/A,,Overcast,320,2012-12-28 08:35:00
3:55 AM,33.8,24.8,70,29.97,10.0,WNW,8.1,16.1,N/A,,Mostly Cloudy,300,2012-12-28 08:55:00
4:15 AM,33.8,24.8,70,29.98,10.0,NW,10.4,16.1,N/A,,Mostly Cloudy,310,2012-12-28 09:15:00
4:35 AM,33.8,24.8,70,29.98,10.0,NW,6.9,-,N/A,,Mostly Cloudy,320,2012-12-28 09:35:00
4:55 AM,33.8,23.0,65,29.98,10.0,NW,9.2,17.3,N/A,,Scattered Clouds,320,2012-12-28 09:55:00
5:15 AM,32.0,23.0,69,29.98,10.0,NNW,5.8,19.6,N/A,,Clear,330,2012-12-28 10:15:00
5:35 AM,32.0,24.8,75,30.00,10.0,Calm,Calm,-,N/A,,Clear,0,2012-12-28 10:35:00
5:55 AM,32.0,24.8,75,30.01,10.0,NNW,5.8,-,N/A,,Clear,340,2012-12-28 10:55:00
6:15 AM,32.0,24.8,75,30.02,10.0,NW,4.6,-,N/A,,Clear,320,2012-12-28 11:15:00
6:35 AM,32.0,24.8,75,30.03,10.0,NW,4.6,-,N/A,,Clear,320,2012-12-28 11:35:00
6:55 AM,32.0,24.8,75,30.03,10.0,WNW,8.1,-,N/A,,Clear,300,2012-12-28 11:55:00
7:35 AM,32.0,24.8,75,30.04,10.0,Calm,Calm,-,N/A,,Clear,0,2012-12-28 12:35:00
7:55 AM,32.0,24.8,75,30.05,10.0,NW,4.6,-,N/A,,Clear,310,2012-12-28 12:55:00
8:15 AM,32.0,24.8,75,30.06,10.0,Calm,Calm,-,N/A,,Scattered Clouds,0,2012-12-28 13:15:00
8:35 AM,33.8,24.8,70,30.06,10.0,NW,5.8,-,N/A,,Scattered Clouds,310,2012-12-28 13:35:00
8:55 AM,33.8,26.6,75,30.06,10.0,NW,11.5,-,N/A,,Scattered Clouds,310,2012-12-28 13:55:00
9:15 AM,33.8,26.6,75,30.08,10.0,WNW,9.2,-,N/A,,Clear,300,2012-12-28 14:15:00
9:35 AM,33.8,24.8,70,30.10,10.0,NW,9.2,-,N/A,,Scattered Clouds,310,2012-12-28 14:35:00
9:55 AM,35.6,24.8,65,30.09,10.0,NNW,8.1,-,N/A,,Scattered Clouds,330,2012-12-28 14:55:00
10:15 AM,35.6,26.6,70,30.09,10.0,North,9.2,-,N/A,,Scattered Clouds,350,2012-12-28 15:15:00
10:35 AM,35.6,24.8,65,30.09,10.0,WNW,6.9,-,N/A,,Clear,300,2012-12-28 15:35:00
10:55 AM,35.6,26.6,70,30.08,10.0,NNW,8.1,-,N/A,,Clear,330,2012-12-28 15:55:00
11:15 AM,37.4,26.6,65,30.09,10.0,WNW,8.1,-,N/A,,Clear,300,2012-12-28 16:15:00
11:35 AM,37.4,26.6,65,30.08,10.0,WNW,9.2,-,N/A,,Clear,290,2012-12-28 16:35:00
11:55 AM,37.4,26.6,65,30.07,10.0,WNW,9.2,-,N/A,,Clear,290,2012-12-28 16:55:00
12:15 PM,37.4,26.6,65,30.06,10.0,West,8.1,-,N/A,,Clear,270,2012-12-28 17:15:00
12:35 PM,37.4,26.6,65,30.05,10.0,NW,8.1,-,N/A,,Clear,310,2012-12-28 17:35:00
12:55 PM,37.4,26.6,65,30.03,10.0,North,4.6,-,N/A,,Clear,350,2012-12-28 17:55:00
1:15 PM,37.4,26.6,65,30.04,10.0,WNW,8.1,-,N/A,,Clear,290,2012-12-28 18:15:00
1:35 PM,41.0,26.6,57,30.04,10.0,WNW,5.8,-,N/A,,Clear,290,2012-12-28 18:35:00
1:55 PM,39.2,26.6,61,30.03,10.0,NW,5.8,-,N/A,,Clear,320,2012-12-28 18:55:00
2:15 PM,39.2,26.6,61,30.05,10.0,West,8.1,-,N/A,,Clear,280,2012-12-28 19:15:00
2:35 PM,37.4,26.6,65,30.04,10.0,NW,3.5,-,N/A,,Clear,310,2012-12-28 19:35:00
2:55 PM,39.2,26.6,61,30.06,10.0,WNW,6.9,-,N/A,,Clear,290,2012-12-28 19:55:00
3:15 PM,41.0,26.6,57,30.05,10.0,WNW,9.2,-,N/A,,Clear,300,2012-12-28 20:15:00
3:35 PM,39.2,26.6,61,30.05,10.0,WNW,5.8,-,N/A,,Clear,300,2012-12-28 20:35:00
3:55 PM,39.2,26.6,61,30.05,10.0,NW,8.1,-,N/A,,Clear,310,2012-12-28 20:55:00
4:15 PM,37.4,28.4,70,30.05,10.0,WNW,3.5,-,N/A,,Clear,300,2012-12-28 21:15:00
4:35 PM,37.4,26.6,65,30.07,10.0,NW,4.6,-,N/A,,Clear,310,2012-12-28 21:35:00
4:55 PM,35.6,26.6,70,30.06,10.0,NW,3.5,-,N/A,,Clear,310,2012-12-28 21:55:00
5:15 PM,35.6,26.6,70,30.06,10.0,Calm,Calm,-,N/A,,Clear,0,2012-12-28 22:15:00
5:35 PM,35.6,28.4,75,30.05,10.0,Calm,Calm,-,N/A,,Clear,0,2012-12-28 22:35:00
5:55 PM,35.6,28.4,75,30.06,10.0,Calm,Calm,-,N/A,,Clear,0,2012-12-28 22:55:00
6:15 PM,33.8,28.4,81,30.06,10.0,Calm,Calm,-,N/A,,Clear,0,2012-12-28 23:15:00
6:55 PM,32.0,28.4,87,30.05,10.0,Calm,Calm,-,N/A,,Clear,0,2012-12-28 23:55:00
7:15 PM,32.0,28.4,87,30.05,10.0,Calm,Calm,-,N/A,,Clear,0,2012-12-29 00:15:00
7:35 PM,32.0,28.4,87,30.07,10.0,Calm,Calm,-,N/A,,Clear,0,2012-12-29 00:35:00
7:55 PM,32.0,28.4,87,30.06,10.0,Calm,Calm,-,N/A,,Clear,0,2012-12-29 00:55:00
8:15 PM,32.0,28.4,87,30.06,10.0,Calm,Calm,-,N/A,,Clear,0,2012-12-29 01:15:00
8:35 PM,32.0,28.4,87,30.07,10.0,Calm,Calm,-,N/A,,Clear,0,2012-12-29 01:35:00
8:55 PM,32.0,28.4,87,30.06,10.0,Calm,Calm,-,N/A,,Clear,0,2012-12-29 01:55:00
9:15 PM,30.2,28.4,93,30.05,10.0,Calm,Calm,-,N/A,,Clear,0,2012-12-29 02:15:00
9:35 PM,30.2,28.4,93,30.08,10.0,Calm,Calm,-,N/A,,Clear,0,2012-12-29 02:35:00
9:55 PM,30.2,28.4,93,30.08,10.0,Calm,Calm,-,N/A,,Clear,0,2012-12-29 02:55:00
10:15 PM,30.2,28.4,93,30.07,7.0,Calm,Calm,-,N/A,,Clear,0,2012-12-29 03:15:00
10:35 PM,28.4,28.4,100,30.07,10.0,Calm,Calm,-,N/A,,Clear,0,2012-12-29 03:35:00
10:55 PM,28.4,26.6,93,30.06,10.0,Calm,Calm,-,N/A,,Clear,0,2012-12-29 03:55:00
11:15 PM,28.4,26.6,93,30.05,10.0,Calm,Calm,-,N/A,,Clear,0,2012-12-29 04:15:00
11:35 PM,28.4,26.6,93,30.03,10.0,Calm,Calm,-,N/A,,Clear,0,2012-12-29 04:35:00
11:55 PM,28.4,28.4,100,30.03,10.0,Calm,Calm,-,N/A,,Clear,0,2012-12-29 04:55:00